| time (UTC) | temp F | wind direction | speed knots | gust knots | rain 1hr in | rain 24hr in | rain mn in | humidity % | barometer mb |
| 20260509213022 | 84 | 120 | 0.9 | 4.3 | 0.00 | 0.36 | 0.36 | 83 | 1012.4 |
| 20260509212520 | 83 | 106 | 0.9 | 3.5 | 0.00 | 0.36 | 0.36 | 84 | 1012.4 |
| 20260509212016 | 83 | 98 | 4.3 | 7.8 | 0.00 | 0.36 | 0.36 | 85 | 1012.4 |
| 20260509211512 | 83 | 77 | 0.0 | 4.3 | 0.00 | 0.36 | 0.36 | 85 | 1012.4 |
| 20260509211009 | 83 | 97 | 1.7 | 6.1 | 0.00 | 0.36 | 0.36 | 86 | 1012.1 |
| 20260509210506 | 83 | 94 | 0.9 | 7.0 | 0.00 | 0.36 | 0.36 | 86 | 1012.1 |
| 20260509210002 | 83 | 92 | 0.0 | 2.6 | 0.00 | 0.36 | 0.36 | 86 | 1012.1 |
| 20260509205456 | 83 | 93 | 2.6 | 4.3 | 0.00 | 0.36 | 0.36 | 85 | 1012.1 |
| 20260509204952 | 83 | 82 | 2.6 | 4.3 | 0.00 | 0.36 | 0.36 | 85 | 1011.7 |
| 20260509204448 | 83 | 87 | 3.5 | 4.3 | 0.00 | 0.36 | 0.36 | 85 | 1011.7 |
| 20260509203945 | 83 | 80 | 2.6 | 3.5 | 0.00 | 0.36 | 0.36 | 85 | 1011.4 |
| 20260509203441 | 83 | 80 | 1.7 | 3.5 | 0.00 | 0.36 | 0.36 | 86 | 1011.4 |
| 20260509202939 | 82 | 88 | 1.7 | 3.5 | 0.00 | 0.36 | 0.36 | 86 | 1011.4 |
| 20260509202435 | 82 | 81 | 3.5 | 4.3 | 0.00 | 0.36 | 0.36 | 86 | 1011.4 |
| 20260509201930 | 82 | 79 | 2.6 | 4.3 | 0.00 | 0.36 | 0.36 | 86 | 1011.4 |
| 20260509201425 | 82 | 82 | 3.5 | 4.3 | 0.00 | 0.36 | 0.36 | 87 | 1011.0 |
| 20260509200922 | 82 | 86 | 3.5 | 4.3 | 0.00 | 0.36 | 0.36 | 87 | 1011.0 |
| 20260509200422 | 82 | 80 | 2.6 | 3.5 | 0.00 | 0.36 | 0.36 | 86 | 1011.4 |
| 20260509195919 | 82 | 89 | 3.5 | 4.3 | 0.00 | 0.36 | 0.36 | 86 | 1011.4 |
| 20260509195415 | 81 | 87 | 3.5 | 5.2 | 0.00 | 0.36 | 0.36 | 87 | 1011.4 |
| 20260509194914 | 81 | 85 | 4.3 | 5.2 | 0.00 | 0.36 | 0.36 | 87 | 1011.4 |
| 20260509194410 | 81 | 87 | 3.5 | 5.2 | 0.00 | 0.36 | 0.36 | 88 | 1011.0 |
| 20260509193908 | 80 | 91 | 4.3 | 5.2 | 0.00 | 0.36 | 0.36 | 88 | 1011.0 |
| 20260509193407 | 80 | 89 | 4.3 | 5.2 | 0.00 | 0.36 | 0.36 | 89 | 1011.0 |
| 20260509192903 | 80 | 82 | 3.5 | 5.2 | 0.00 | 0.36 | 0.36 | 90 | 1011.0 |
| 20260509192359 | 79 | 80 | 3.5 | 5.2 | 0.00 | 0.36 | 0.36 | 91 | 1011.0 |
| 20260509191855 | 79 | 82 | 1.7 | 3.5 | 0.00 | 0.36 | 0.36 | 91 | 1011.0 |
| 20260509191351 | 80 | 68 | 0.0 | 1.7 | 0.00 | 0.36 | 0.36 | 92 | 1010.7 |
| 20260509190847 | 79 | 73 | 0.0 | 1.7 | 0.00 | 0.36 | 0.36 | 92 | 1010.7 |
| 20260509190344 | 79 | 65 | 0.0 | 2.6 | 0.00 | 0.36 | 0.36 | 92 | 1010.7 |
| 20260509185841 | 79 | 63 | 0.0 | 0.0 | 0.00 | 0.36 | 0.36 | 92 | 1010.7 |
| 20260509185338 | 79 | 67 | 0.0 | 0.0 | 0.00 | 0.36 | 0.36 | 92 | 1010.7 |
| 20260509184835 | 80 | 82 | 1.7 | 4.3 | 0.00 | 0.36 | 0.36 | 92 | 1010.7 |
| 20260509184332 | 80 | 83 | 0.9 | 3.5 | 0.00 | 0.36 | 0.36 | 92 | 1010.7 |
| 20260509183829 | 79 | 83 | 0.9 | 3.5 | 0.00 | 0.36 | 0.36 | 93 | 1010.7 |
| 20260509183324 | 79 | 95 | 2.6 | 5.2 | 0.00 | 0.36 | 0.36 | 93 | 1010.7 |
| 20260509182820 | 78 | 32 | 0.0 | 0.0 | 0.00 | 0.36 | 0.36 | 93 | 1010.7 |
| 20260509182317 | 78 | 15 | 0.0 | 1.7 | 0.00 | 0.36 | 0.36 | 93 | 1011.0 |
| 20260509181814 | 78 | 68 | 0.0 | 0.0 | 0.00 | 0.36 | 0.36 | 93 | 1011.0 |
| 20260509181312 | 78 | 57 | 0.0 | 0.0 | 0.00 | 0.36 | 0.36 | 93 | 1011.0 |
| 20260509180810 | 78 | 84 | 0.0 | 0.0 | 0.00 | 0.36 | 0.36 | 93 | 1011.0 |
| 20260509180305 | 78 | 110 | 0.0 | 0.0 | 0.00 | 0.36 | 0.36 | 93 | 1011.0 |
| 20260509175802 | 78 | 43 | 0.0 | 0.0 | 0.00 | 0.36 | 0.36 | 93 | 1011.0 |
| 20260509175258 | 78 | 39 | 0.0 | 0.0 | 0.00 | 0.36 | 0.36 | 93 | 1010.7 |
| 20260509174754 | 78 | 79 | 0.0 | 0.0 | 0.00 | 0.36 | 0.36 | 93 | 1011.0 |
| 20260509174250 | 78 | 56 | 0.0 | 0.0 | 0.00 | 0.36 | 0.36 | 93 | 1011.0 |
| 20260509173746 | 78 | 66 | 0.0 | 0.0 | 0.00 | 0.36 | 0.36 | 93 | 1011.0 |
| 20260509173242 | 78 | 83 | 0.0 | 0.0 | 0.00 | 0.36 | 0.36 | 92 | 1011.0 |
| 20260509172738 | 78 | 64 | 0.0 | 0.0 | 0.00 | 0.36 | 0.36 | 92 | 1010.7 |
| 20260509172235 | 78 | 47 | 0.0 | 0.0 | 0.00 | 0.36 | 0.36 | 92 | 1010.7 |
| 20260509171730 | 78 | 51 | 0.0 | 0.0 | 0.00 | 0.36 | 0.36 | 92 | 1010.7 |
| 20260509171226 | 79 | 354 | 0.0 | 0.0 | 0.47 | 0.35 | 0.35 | 92 | 1010.7 |
| 20260509170723 | 79 | 74 | 0.0 | 0.0 | 0.00 | 0.35 | 0.35 | 92 | 1010.7 |
| 20260509170219 | 79 | 58 | 0.0 | 0.0 | 0.00 | 0.35 | 0.35 | 92 | 1011.0 |
| 20260509165718 | 79 | 59 | 0.0 | 0.0 | 0.00 | 0.35 | 0.35 | 92 | 1010.7 |
| 20260509165213 | 79 | 47 | 0.0 | 0.0 | 0.00 | 0.34 | 0.34 | 92 | 1010.7 |
| 20260509164709 | 79 | 35 | 0.0 | 0.0 | 0.00 | 0.34 | 0.34 | 92 | 1010.7 |
| 20260509164205 | 79 | 34 | 0.0 | 0.0 | 0.00 | 0.34 | 0.34 | 92 | 1010.7 |
| 20260509163703 | 79 | 34 | 0.0 | 1.7 | 0.00 | 0.34 | 0.34 | 92 | 1010.7 |
| 20260509163159 | 79 | 21 | 0.0 | 2.6 | 0.00 | 0.33 | 0.33 | 92 | 1010.7 |
| 20260509162657 | 79 | 11 | 0.9 | 3.5 | 0.00 | 0.33 | 0.33 | 92 | 1010.7 |
| 20260509162152 | 79 | 30 | 0.9 | 3.5 | 0.47 | 0.32 | 0.32 | 92 | 1010.7 |
| 20260509161648 | 80 | 57 | 0.0 | 0.0 | 0.00 | 0.32 | 0.32 | 92 | 1011.0 |
| 20260509161144 | 80 | 62 | 0.9 | 2.6 | 0.00 | 0.32 | 0.32 | 93 | 1011.0 |
| 20260509160640 | 79 | 65 | 0.9 | 3.5 | 0.00 | 0.31 | 0.31 | 93 | 1011.0 |
| 20260509160135 | 79 | 37 | 0.0 | 0.0 | 0.00 | 0.31 | 0.31 | 93 | 1011.0 |
| 20260509155632 | 79 | 41 | 0.0 | 0.0 | 0.00 | 0.31 | 0.31 | 93 | 1011.0 |
| 20260509155128 | 79 | 44 | 0.0 | 0.0 | 0.00 | 0.31 | 0.31 | 93 | 1011.4 |
| 20260509154624 | 78 | 46 | 0.0 | 0.0 | 0.00 | 0.31 | 0.31 | 93 | 1011.4 |
| 20260509154121 | 78 | 52 | 0.0 | 0.0 | 0.00 | 0.31 | 0.31 | 93 | 1011.4 |
| 20260509153618 | 78 | 52 | 0.0 | 0.0 | 0.00 | 0.31 | 0.31 | 93 | 1011.4 |
| 20260509153115 | 78 | 53 | 0.0 | 0.0 | 0.00 | 0.31 | 0.31 | 92 | 1011.4 |
| 20260509152611 | 78 | 71 | 0.0 | 0.0 | 0.00 | 0.31 | 0.31 | 92 | 1011.4 |
| 20260509152108 | 78 | 54 | 0.0 | 0.0 | 0.00 | 0.31 | 0.31 | 92 | 1011.4 |
| 20260509151604 | 78 | 24 | 0.0 | 1.7 | 0.00 | 0.31 | 0.31 | 92 | 1011.0 |
| 20260509151102 | 78 | 35 | 0.0 | 0.0 | 0.47 | 0.30 | 0.30 | 92 | 1011.0 |
| 20260509150559 | 78 | 46 | 0.0 | 0.0 | 0.00 | 0.30 | 0.30 | 92 | 1011.4 |
| 20260509150058 | 78 | 39 | 0.0 | 0.0 | 0.00 | 0.30 | 0.30 | 92 | 1011.4 |
| 20260509145553 | 78 | 61 | 0.0 | 0.0 | 0.00 | 0.30 | 0.30 | 92 | 1011.4 |
| 20260509145049 | 78 | 43 | 0.0 | 0.0 | 0.00 | 0.30 | 0.30 | 92 | 1011.4 |
| 20260509144546 | 78 | 33 | 0.0 | 0.0 | 0.00 | 0.30 | 0.30 | 92 | 1011.4 |
| 20260509144043 | 78 | 48 | 0.0 | 0.0 | 0.00 | 0.30 | 0.30 | 92 | 1011.4 |
| 20260509143540 | 78 | 103 | 0.0 | 0.0 | 0.00 | 0.30 | 0.30 | 92 | 1011.4 |
| 20260509143038 | 78 | 60 | 0.0 | 0.0 | 0.00 | 0.30 | 0.30 | 92 | 1011.4 |
| 20260509142533 | 78 | 73 | 0.0 | 0.0 | 0.00 | 0.30 | 0.30 | 92 | 1011.4 |
| 20260509142029 | 78 | 47 | 0.0 | 0.0 | 0.00 | 0.30 | 0.30 | 92 | 1011.4 |
| 20260509141525 | 78 | 60 | 0.0 | 0.0 | 0.00 | 0.30 | 0.30 | 92 | 1011.4 |
| 20260509141022 | 78 | 70 | 0.0 | 0.0 | 0.47 | 0.29 | 0.29 | 92 | 1011.7 |
| 20260509140519 | 78 | 66 | 0.0 | 0.0 | 0.00 | 0.28 | 0.28 | 92 | 1011.7 |
| 20260509140017 | 78 | 29 | 0.0 | 0.0 | 0.00 | 0.26 | 0.26 | 91 | 1011.7 |
| 20260509135514 | 78 | 49 | 0.0 | 0.0 | 0.47 | 0.24 | 0.24 | 91 | 1011.7 |
| 20260509135011 | 78 | 56 | 0.0 | 0.0 | 0.00 | 0.23 | 0.23 | 91 | 1011.7 |
| 20260509134508 | 78 | 72 | 2.6 | 3.5 | 0.47 | 0.22 | 0.22 | 92 | 1011.7 |
| 20260509134006 | 79 | 48 | 0.0 | 0.0 | 0.47 | 0.19 | 0.19 | 92 | 1012.1 |
| 20260509133502 | 79 | 54 | 0.0 | 0.0 | 0.00 | 0.18 | 0.18 | 92 | 1012.1 |
| 20260509133000 | 79 | 57 | 0.9 | 2.6 | 0.00 | 0.16 | 0.16 | 92 | 1012.1 |
| 20260509132458 | 79 | 58 | 0.0 | 2.6 | 0.47 | 0.13 | 0.13 | 92 | 1012.1 |
| 20260509131955 | 79 | 75 | 2.6 | 4.3 | 0.47 | 0.10 | 0.10 | 92 | 1012.4 |
| 20260509131452 | 79 | 70 | 3.5 | 4.3 | 0.47 | 0.05 | 0.05 | 92 | 1012.1 |
| 20260509130949 | 80 | 64 | 1.7 | 3.5 | 0.00 | 0.04 | 0.04 | 92 | 1012.1 |
| 20260509130444 | 79 | 51 | 0.0 | 0.0 | 0.47 | 0.01 | 0.01 | 92 | 1012.1 |
| 20260509125942 | 80 | 25 | 0.0 | 0.0 | 0.47 | 0.39 | 0.39 | 91 | 1012.1 |
| 20260509125438 | 80 | 78 | 0.0 | 2.6 | 0.47 | 0.35 | 0.35 | 91 | 1012.4 |
| 20260509124934 | 79 | 52 | 0.0 | 3.5 | 0.00 | 0.35 | 0.35 | 91 | 1012.4 |
| 20260509124431 | 79 | 33 | 0.0 | 0.0 | 0.00 | 0.34 | 0.34 | 91 | 1012.4 |
| 20260509123929 | 79 | 49 | 0.0 | 0.0 | 0.00 | 0.34 | 0.34 | 91 | 1012.4 |
| 20260509123426 | 79 | 35 | 0.9 | 1.7 | 0.00 | 0.34 | 0.34 | 91 | 1012.1 |
| 20260509122922 | 79 | 38 | 0.0 | 0.0 | 0.00 | 0.34 | 0.34 | 91 | 1012.1 |
| 20260509122419 | 79 | 42 | 0.0 | 0.0 | 0.00 | 0.34 | 0.34 | 91 | 1012.1 |
| 20260509121915 | 79 | 65 | 0.0 | 0.0 | 0.00 | 0.34 | 0.34 | 91 | 1012.1 |
| 20260509121413 | 79 | 140 | 0.9 | 3.5 | 0.00 | 0.34 | 0.34 | 91 | 1012.1 |
| 20260509120911 | 79 | 95 | 0.0 | 3.5 | 0.00 | 0.34 | 0.34 | 91 | 1012.1 |
| 20260509120408 | 79 | 82 | 0.0 | 0.0 | 0.00 | 0.34 | 0.34 | 92 | 1012.4 |
| 20260509115906 | 79 | 123 | 0.0 | 0.0 | 0.00 | 0.34 | 0.34 | 92 | 1012.4 |
| 20260509115403 | 79 | 216 | 0.0 | 1.7 | 0.00 | 0.34 | 0.34 | 92 | 1012.7 |
| 20260509114901 | 79 | 82 | 0.0 | 0.0 | 0.00 | 0.34 | 0.34 | 91 | 1012.4 |
| 20260509114359 | 79 | 54 | 0.0 | 0.0 | 0.00 | 0.34 | 0.34 | 91 | 1012.4 |
| 20260509113858 | 79 | 31 | 0.0 | 0.0 | 0.00 | 0.34 | 0.34 | 91 | 1012.4 |
| 20260509113355 | 79 | 71 | 0.0 | 0.0 | 0.00 | 0.34 | 0.34 | 91 | 1012.4 |
| 20260509112851 | 79 | 22 | 0.0 | 0.0 | 0.00 | 0.34 | 0.34 | 91 | 1012.4 |
| 20260509112348 | 79 | 104 | 0.0 | 0.0 | 0.00 | 0.34 | 0.34 | 91 | 1012.4 |
| 20260509111846 | 79 | 82 | 0.0 | 0.0 | 0.00 | 0.34 | 0.34 | 91 | 1012.4 |
| 20260509111342 | 79 | 347 | 0.0 | 0.0 | 0.00 | 0.34 | 0.34 | 91 | 1012.4 |
| 20260509110840 | 79 | 98 | 0.0 | 0.0 | 0.00 | 0.34 | 0.34 | 91 | 1012.4 |
| 20260509110336 | 79 | 77 | 0.0 | 0.0 | 0.00 | 0.34 | 0.34 | 91 | 1012.4 |
| 20260509105835 | 79 | 129 | 0.0 | 0.0 | 0.00 | 0.34 | 0.34 | 91 | 1012.4 |
| 20260509105332 | 79 | 114 | 0.0 | 0.0 | 0.00 | 0.34 | 0.34 | 91 | 1012.4 |
| 20260509104829 | 79 | 112 | 0.0 | 0.0 | 0.00 | 0.34 | 0.34 | 91 | 1012.4 |
| 20260509104325 | 79 | 70 | 0.0 | 0.0 | 0.00 | 0.34 | 0.34 | 91 | 1012.4 |
| 20260509103823 | 79 | 43 | 0.0 | 0.0 | 0.00 | 0.34 | 0.34 | 91 | 1012.4 |
| 20260509103320 | 78 | 53 | 0.0 | 0.0 | 0.00 | 0.34 | 0.34 | 91 | 1012.1 |
| 20260509102820 | 79 | 49 | 0.0 | 0.0 | 0.00 | 0.34 | 0.34 | 91 | 1012.1 |
| 20260509102316 | 79 | 53 | 0.0 | 0.0 | 0.00 | 0.34 | 0.34 | 91 | 1012.4 |
| 20260509101812 | 79 | 57 | 0.0 | 0.0 | 0.00 | 0.34 | 0.34 | 90 | 1012.4 |
| 20260509101308 | 79 | 66 | 0.0 | 0.0 | 0.00 | 0.34 | 0.34 | 90 | 1012.4 |
| 20260509100806 | 79 | 82 | 0.0 | 0.0 | 0.00 | 0.34 | 0.34 | 90 | 1012.4 |
| 20260509100303 | 78 | 86 | 0.0 | 0.0 | 0.00 | 0.34 | 0.34 | 90 | 1012.4 |
| 20260509095759 | 78 | 56 | 0.0 | 0.0 | 0.00 | 0.34 | 0.34 | 90 | 1012.1 |
| 20260509095257 | 79 | 162 | 1.7 | 4.3 | 0.00 | 0.34 | 0.34 | 90 | 1012.4 |
| 20260509094754 | 79 | 119 | 0.0 | 1.7 | 0.00 | 0.34 | 0.34 | 91 | 1012.4 |
| 20260509094250 | 79 | 116 | 0.0 | 2.6 | 0.00 | 0.34 | 0.34 | 91 | 1012.4 |
| 20260509093748 | 79 | 154 | 0.9 | 2.6 | 0.00 | 0.34 | 0.34 | 91 | 1012.4 |
| 20260509093245 | 79 | 147 | 0.9 | 2.6 | 0.00 | 0.34 | 0.34 | 92 | 1012.4 |
| 20260509092744 | 79 | 79 | 0.0 | 0.0 | 0.00 | 0.34 | 0.34 | 92 | 1012.4 |
| 20260509092241 | 79 | 140 | 0.0 | 1.7 | 0.00 | 0.34 | 0.34 | 92 | 1012.4 |
| 20260509091739 | 79 | 120 | 0.0 | 0.0 | 0.00 | 0.34 | 0.34 | 92 | 1012.4 |
| 20260509091235 | 79 | 85 | 0.0 | 0.0 | 0.00 | 0.34 | 0.34 | 92 | 1012.4 |
| 20260509090733 | 79 | 60 | 0.0 | 0.0 | 0.00 | 0.34 | 0.34 | 92 | 1012.4 |
| 20260509090230 | 79 | 57 | 0.0 | 0.0 | 0.00 | 0.34 | 0.34 | 92 | 1012.1 |
| 20260509085728 | 79 | 44 | 0.0 | 0.0 | 0.00 | 0.34 | 0.34 | 91 | 1012.1 |
| 20260509085225 | 79 | 48 | 0.0 | 0.0 | 0.00 | 0.33 | 0.33 | 91 | 1012.1 |
| 20260509084721 | 79 | 73 | 0.0 | 0.0 | 0.00 | 0.33 | 0.33 | 91 | 1012.1 |
| 20260509084218 | 79 | 40 | 0.0 | 0.0 | 0.00 | 0.33 | 0.33 | 91 | 1012.1 |
| 20260509083716 | 79 | 70 | 0.0 | 0.0 | 0.00 | 0.33 | 0.33 | 91 | 1012.1 |
| 20260509083212 | 80 | 62 | 0.0 | 0.0 | 0.47 | 0.32 | 0.32 | 90 | 1011.7 |
| 20260509082709 | 80 | 67 | 0.0 | 0.0 | 0.00 | 0.32 | 0.32 | 90 | 1011.7 |
| 20260509082206 | 80 | 83 | 0.0 | 0.0 | 0.00 | 0.32 | 0.32 | 90 | 1012.1 |
| 20260509081702 | 80 | 17 | 0.0 | 0.0 | 0.00 | 0.32 | 0.32 | 90 | 1012.1 |
| 20260509081200 | 80 | 32 | 0.0 | 0.0 | 0.00 | 0.32 | 0.32 | 90 | 1012.1 |
| 20260509080658 | 80 | 73 | 0.0 | 0.0 | 0.00 | 0.32 | 0.32 | 89 | 1012.1 |
| 20260509080155 | 81 | 241 | 0.9 | 3.5 | 0.00 | 0.32 | 0.32 | 90 | 1012.1 |
| 20260509075654 | 80 | 96 | 1.7 | 3.5 | 0.00 | 0.31 | 0.31 | 90 | 1012.1 |
| 20260509075151 | 80 | 91 | 4.3 | 6.1 | 0.00 | 0.30 | 0.30 | 90 | 1012.1 |
| 20260509074648 | 81 | 98 | 6.1 | 7.8 | 0.00 | 0.30 | 0.30 | 90 | 1011.7 |
| 20260509074144 | 81 | 89 | 5.2 | 7.8 | 0.00 | 0.26 | 0.26 | 90 | 1011.7 |
| 20260509073641 | 81 | 70 | 3.5 | 5.2 | 0.00 | 0.26 | 0.26 | 90 | 1011.4 |
| 20260509073137 | 81 | 76 | 0.0 | 0.0 | 0.00 | 0.26 | 0.26 | 90 | 1011.4 |
| 20260509072634 | 81 | 49 | 0.0 | 1.7 | 0.00 | 0.25 | 0.25 | 90 | 1011.4 |
| 20260509072131 | 81 | 70 | 3.5 | 5.2 | 0.00 | 0.25 | 0.25 | 90 | 1011.0 |
| 20260509071628 | 81 | 74 | 2.6 | 6.1 | 0.00 | 0.25 | 0.25 | 90 | 1011.0 |
| 20260509071125 | 81 | 92 | 0.0 | 0.0 | 0.00 | 0.25 | 0.25 | 90 | 1011.0 |
| 20260509070622 | 81 | 84 | 0.0 | 0.0 | 0.00 | 0.25 | 0.25 | 90 | 1011.0 |
| 20260509070118 | 80 | 312 | 0.0 | 0.0 | 0.00 | 0.25 | 0.25 | 90 | 1011.0 |
| 20260509065614 | 80 | 225 | 0.0 | 1.7 | 0.00 | 0.25 | 0.25 | 90 | 1011.0 |
| 20260509065110 | 80 | 114 | 0.0 | 0.0 | 0.00 | 0.25 | 0.25 | 90 | 1011.0 |
| 20260509064608 | 80 | 66 | 0.0 | 0.0 | 0.00 | 0.25 | 0.25 | 90 | 1010.7 |
| 20260509064106 | 80 | 63 | 0.0 | 0.0 | 0.00 | 0.25 | 0.25 | 90 | 1010.7 |
| 20260509063602 | 80 | 47 | 0.0 | 0.0 | 0.00 | 0.25 | 0.25 | 89 | 1010.4 |
| 20260509063059 | 80 | 42 | 0.0 | 0.0 | 0.00 | 0.25 | 0.25 | 89 | 1010.4 |
| 20260509062556 | 80 | 59 | 0.0 | 0.0 | 0.00 | 0.25 | 0.25 | 89 | 1010.4 |
| 20260509062053 | 80 | 27 | 0.0 | 0.0 | 0.00 | 0.25 | 0.25 | 89 | 1010.4 |
| 20260509061550 | 81 | 44 | 0.0 | 0.0 | 0.00 | 0.25 | 0.25 | 88 | 1010.4 |
| 20260509061047 | 81 | 45 | 0.0 | 0.0 | 0.00 | 0.25 | 0.25 | 88 | 1010.4 |
| 20260509060545 | 81 | 358 | 0.0 | 0.0 | 0.00 | 0.25 | 0.25 | 88 | 1010.0 |
| 20260509060040 | 80 | 14 | 0.0 | 0.0 | 0.00 | 0.25 | 0.25 | 88 | 1010.0 |
| 20260509055536 | 81 | 105 | 0.0 | 0.0 | 0.00 | 0.25 | 0.25 | 88 | 1010.0 |
| 20260509055032 | 81 | 165 | 0.0 | 0.0 | 0.00 | 0.25 | 0.25 | 88 | 1010.0 |
| 20260509054529 | 81 | 77 | 0.0 | 0.0 | 0.00 | 0.25 | 0.25 | 89 | 1010.0 |
| 20260509054027 | 80 | 156 | 0.0 | 2.6 | 0.00 | 0.25 | 0.25 | 89 | 1009.7 |
| 20260509053525 | 81 | 188 | 0.9 | 3.5 | 0.00 | 0.25 | 0.25 | 89 | 1009.7 |
| 20260509053021 | 80 | 130 | 0.0 | 2.6 | 0.00 | 0.25 | 0.25 | 90 | 1009.7 |
| 20260509052519 | 80 | 162 | 0.9 | 2.6 | 0.00 | 0.25 | 0.25 | 90 | 1009.7 |
| 20260509052017 | 81 | 154 | 0.0 | 0.9 | 0.00 | 0.25 | 0.25 | 90 | 1009.7 |
| 20260509051515 | 81 | 119 | 0.0 | 1.7 | 0.00 | 0.25 | 0.25 | 90 | 1009.7 |
| 20260509051012 | 80 | 111 | 0.0 | 0.0 | 0.00 | 0.25 | 0.25 | 90 | 1009.7 |
| 20260509050508 | 80 | 92 | 0.0 | 0.0 | 0.00 | 0.25 | 0.25 | 90 | 1009.7 |
| 20260509050005 | 80 | 158 | 0.9 | 3.5 | 0.00 | 0.25 | 0.25 | 90 | 1009.7 |
| 20260509045502 | 80 | 172 | 0.0 | 2.6 | 0.00 | 0.25 | 0.25 | 90 | 1009.7 |
| 20260509044959 | 80 | 33 | 0.0 | 0.0 | 0.00 | 0.25 | 0.25 | 90 | 1009.7 |
| 20260509044457 | 80 | 147 | 0.0 | 0.0 | 0.00 | 0.25 | 0.25 | 90 | 1009.3 |
| 20260509043954 | 80 | 97 | 0.0 | 0.0 | 0.47 | 0.24 | 0.24 | 90 | 1009.3 |
| 20260509043449 | 80 | 99 | 0.0 | 0.0 | 0.00 | 0.24 | 0.24 | 90 | 1009.3 |
| 20260509042945 | 79 | 122 | 0.0 | 0.0 | 0.00 | 0.24 | 0.24 | 89 | 1009.3 |
| 20260509042443 | 79 | 226 | 0.0 | 1.7 | 0.00 | 0.24 | 0.24 | 88 | 1009.3 |
| 20260509041938 | 80 | 76 | 0.0 | 0.0 | 0.00 | 0.24 | 0.24 | 89 | 1009.0 |
| 20260509041435 | 80 | 113 | 0.9 | 2.6 | 0.00 | 0.24 | 0.24 | 89 | 1009.0 |
| 20260509040934 | 80 | 150 | 1.7 | 4.3 | 0.00 | 0.24 | 0.24 | 89 | 1009.0 |
| 20260509040431 | 81 | 165 | 0.9 | 4.3 | 0.47 | 0.23 | 0.23 | 88 | 1009.0 |
| 20260509035928 | 83 | 93 | 0.0 | 1.7 | 0.94 | 0.17 | 0.17 | 86 | 1009.3 |
| 20260509035425 | 86 | 113 | 2.6 | 7.0 | 0.47 | 0.05 | 0.05 | 81 | 1009.0 |
| 20260509034921 | 87 | 87 | 0.9 | 3.5 | 0.00 | 0.05 | 0.05 | 81 | 1008.7 |
| 20260509034419 | 87 | 51 | 0.0 | 0.0 | 0.00 | 0.05 | 0.05 | 80 | 1008.7 |
| 20260509033916 | 87 | 187 | 1.7 | 4.3 | 0.00 | 0.05 | 0.05 | 77 | 1008.7 |
| 20260509033413 | 89 | 71 | 0.0 | 1.7 | 0.00 | 0.05 | 0.05 | 76 | 1008.7 |
| 20260509032909 | 89 | 127 | 1.7 | 3.5 | 0.00 | 0.05 | 0.05 | 75 | 1009.0 |
| 20260509032407 | 87 | 140 | 0.9 | 4.3 | 0.00 | 0.05 | 0.05 | 78 | 1008.7 |
| 20260509031905 | 86 | 164 | 0.0 | 1.7 | 0.00 | 0.05 | 0.05 | 80 | 1009.0 |
| 20260509031402 | 85 | 175 | 1.7 | 3.5 | 0.00 | 0.05 | 0.05 | 81 | 1009.0 |
| 20260509030859 | 85 | 214 | 2.6 | 3.5 | 0.00 | 0.05 | 0.05 | 82 | 1009.0 |
| 20260509030357 | 85 | 160 | 0.9 | 3.5 | 0.00 | 0.05 | 0.05 | 83 | 1009.0 |
| 20260509025854 | 84 | 166 | 1.7 | 3.5 | 0.00 | 0.05 | 0.05 | 82 | 1009.0 |
| 20260509025349 | 85 | 115 | 0.0 | 0.9 | 0.00 | 0.05 | 0.05 | 82 | 1009.0 |
| 20260509024845 | 85 | 102 | 0.0 | 0.0 | 0.00 | 0.05 | 0.05 | 81 | 1009.0 |
| 20260509024341 | 85 | 122 | 0.9 | 2.6 | 0.00 | 0.05 | 0.05 | 81 | 1009.0 |
| 20260509023838 | 85 | 108 | 0.9 | 2.6 | 0.00 | 0.05 | 0.05 | 81 | 1009.3 |
| 20260509023336 | 86 | 125 | 1.7 | 4.3 | 0.00 | 0.05 | 0.05 | 81 | 1009.3 |
| 20260509022832 | 86 | 78 | 0.0 | 3.5 | 0.00 | 0.05 | 0.05 | 81 | 1009.3 |
| 20260509022330 | 86 | 79 | 0.9 | 2.6 | 0.00 | 0.05 | 0.05 | 80 | 1009.3 |
| 20260509021826 | 86 | 111 | 1.7 | 2.6 | 0.00 | 0.05 | 0.05 | 81 | 1009.3 |
| 20260509021323 | 86 | 154 | 1.7 | 4.3 | 0.00 | 0.05 | 0.05 | 81 | 1009.7 |
| 20260509020821 | 86 | 88 | 0.9 | 4.3 | 0.00 | 0.05 | 0.05 | 83 | 1009.7 |
| 20260509020319 | 86 | 87 | 2.6 | 5.2 | 0.00 | 0.05 | 0.05 | 84 | 1009.3 |
| 20260509015816 | 85 | 82 | 0.9 | 2.6 | 0.00 | 0.05 | 0.05 | 82 | 1009.3 |
| 20260509015314 | 86 | 90 | 3.5 | 5.2 | 0.00 | 0.04 | 0.04 | 81 | 1009.7 |
| 20260509014811 | 89 | 88 | 5.2 | 7.8 | 0.47 | 0.03 | 0.03 | 75 | 1009.7 |
| 20260509014308 | 92 | 77 | 4.3 | 6.1 | 0.00 | 0.03 | 0.03 | 70 | 1009.3 |
| 20260509013804 | 94 | 74 | 3.5 | 4.3 | 0.00 | 0.03 | 0.03 | 67 | 1009.3 |
| 20260509013300 | 93 | 80 | 1.7 | 4.3 | 0.00 | 0.03 | 0.03 | 67 | 1009.3 |
| 20260509012757 | 93 | 82 | 2.6 | 5.2 | 0.00 | 0.03 | 0.03 | 68 | 1009.7 |
| 20260509012254 | 92 | 83 | 2.6 | 4.3 | 0.00 | 0.03 | 0.03 | 70 | 1009.7 |
| 20260509011751 | 93 | 93 | 4.3 | 5.2 | 0.00 | 0.03 | 0.03 | 67 | 1009.7 |
| 20260509011248 | 93 | 86 | 3.5 | 5.2 | 0.00 | 0.03 | 0.03 | 68 | 1010.0 |
| 20260509010746 | 92 | 96 | 1.7 | 5.2 | 0.00 | 0.03 | 0.03 | 69 | 1010.0 |
| 20260509010242 | 91 | 94 | 1.7 | 5.2 | 0.00 | 0.03 | 0.03 | 71 | 1010.0 |
| 20260509005740 | 91 | 89 | 5.2 | 7.0 | 0.00 | 0.03 | 0.03 | 70 | 1010.0 |
| 20260509005237 | 91 | 87 | 4.3 | 5.2 | 0.00 | 0.03 | 0.03 | 70 | 1010.4 |
| 20260509004737 | 90 | 91 | 5.2 | 7.0 | 0.00 | 0.03 | 0.03 | 70 | 1010.4 |
| 20260509004235 | 90 | 74 | 0.0 | 0.0 | 0.00 | 0.03 | 0.03 | 70 | 1010.4 |
| 20260509003733 | 91 | 103 | 0.9 | 3.5 | 0.00 | 0.03 | 0.03 | 69 | 1010.7 |
| 20260509003230 | 92 | 108 | 0.0 | 2.6 | 0.00 | 0.03 | 0.03 | 67 | 1010.7 |
| 20260509002727 | 92 | 154 | 0.9 | 3.5 | 0.00 | 0.03 | 0.03 | 67 | 1010.4 |
| 20260509002225 | 92 | 101 | 2.6 | 5.2 | 0.00 | 0.03 | 0.03 | 68 | 1010.4 |
| 20260509001722 | 91 | 111 | 1.7 | 3.5 | 0.00 | 0.03 | 0.03 | 69 | 1010.4 |
| 20260509001218 | 92 | 131 | 0.9 | 4.3 | 0.00 | 0.03 | 0.03 | 69 | 1010.7 |
| 20260509000716 | 91 | 128 | 0.9 | 3.5 | 0.00 | 0.03 | 0.03 | 70 | 1010.7 |
| 20260509000213 | 91 | 73 | 0.9 | 3.5 | 0.00 | 0.03 | 0.03 | 71 | 1010.7 |
| 20260508235710 | 90 | 216 | 0.0 | 1.7 | 0.00 | 0.03 | 0.03 | 71 | 1011.0 |
| 20260508235206 | 91 | 106 | 5.2 | 10.4 | 0.00 | 0.03 | 0.03 | 72 | 1010.7 |
| 20260508234704 | 90 | 94 | 4.3 | 7.8 | 0.00 | 0.03 | 0.03 | 74 | 1010.7 |
| 20260508234200 | 90 | 95 | 4.3 | 5.2 | 0.00 | 0.03 | 0.03 | 74 | 1011.0 |
| 20260508233700 | 89 | 94 | 6.1 | 7.8 | 0.00 | 0.03 | 0.03 | 75 | 1011.0 |
| 20260508233157 | 90 | 95 | 5.2 | 7.8 | 0.00 | 0.03 | 0.03 | 74 | 1011.4 |
| 20260508232654 | 90 | 83 | 6.1 | 7.8 | 0.00 | 0.03 | 0.03 | 73 | 1011.0 |
| 20260508232150 | 90 | 86 | 5.2 | 7.0 | 0.00 | 0.03 | 0.03 | 74 | 1011.0 |
| 20260508231649 | 89 | 86 | 5.2 | 7.0 | 0.00 | 0.03 | 0.03 | 76 | 1011.0 |
| 20260508231145 | 89 | 83 | 5.2 | 6.1 | 0.00 | 0.03 | 0.03 | 76 | 1011.0 |
| 20260508230642 | 89 | 83 | 5.2 | 7.0 | 0.00 | 0.03 | 0.03 | 76 | 1011.0 |
| 20260508230138 | 89 | 83 | 3.5 | 5.2 | 0.00 | 0.03 | 0.03 | 77 | 1011.4 |
| 20260508225637 | 89 | 85 | 5.2 | 6.1 | 0.00 | 0.03 | 0.03 | 77 | 1011.4 |
| 20260508225132 | 88 | 90 | 5.2 | 7.8 | 0.00 | 0.03 | 0.03 | 79 | 1011.4 |
| 20260508224630 | 87 | 90 | 4.3 | 5.2 | 0.00 | 0.03 | 0.03 | 80 | 1011.4 |
| 20260508224128 | 87 | 82 | 4.3 | 5.2 | 0.00 | 0.03 | 0.03 | 79 | 1011.7 |
| 20260508223625 | 87 | 81 | 4.3 | 6.1 | 0.00 | 0.03 | 0.03 | 80 | 1011.4 |
| 20260508223122 | 86 | 84 | 3.5 | 4.3 | 0.00 | 0.03 | 0.03 | 80 | 1011.7 |
| 20260508222620 | 86 | 63 | 0.9 | 1.7 | 0.00 | 0.03 | 0.03 | 80 | 1011.7 |
| 20260508222117 | 86 | 69 | 0.0 | 1.7 | 0.00 | 0.03 | 0.03 | 79 | 1011.7 |
| 20260508221613 | 86 | 78 | 1.7 | 2.6 | 0.00 | 0.03 | 0.03 | 79 | 1011.7 |
| 20260508221109 | 85 | 69 | 0.0 | 1.7 | 0.00 | 0.03 | 0.03 | 80 | 1012.1 |
| 20260508220605 | 85 | 73 | 0.0 | 0.9 | 0.00 | 0.03 | 0.03 | 81 | 1012.1 |
| 20260508215559 | 84 | 71 | 0.9 | 2.6 | 0.00 | 0.03 | 0.03 | 83 | 1012.1 |
| 20260508215055 | 84 | 88 | 3.5 | 4.3 | 0.00 | 0.03 | 0.03 | 83 | 1012.1 |
| 20260508214553 | 84 | 88 | 4.3 | 7.0 | 0.00 | 0.03 | 0.03 | 83 | 1012.1 |
| 20260508214049 | 84 | 91 | 2.6 | 5.2 | 0.00 | 0.03 | 0.03 | 82 | 1011.7 |
| 20260508213546 | 84 | 79 | 3.5 | 4.3 | 0.00 | 0.03 | 0.03 | 82 | 1011.7 |